Location: DARK SKY Beskydy - Park tmavé oblohy, www.darkskybeskydy.cz
(49.4926°N, 18.5016°E)
Time: 14:56:26
(UTC+01:00)

Vanguard 1 - Pass Details

Date: 17 November 2025
Orbit: 650 x 3821 km, 34.2° (Epoch: 07 December)

Event Time Altitude Azimuth Distance (km) Brightness Sun altitude
Rises 18:47:22 0° 260° (W) 7,337 15.8 -26.8°
Reaches altitude 10° 18:52:09 10° 255° (WSW) 6,570 15.1 -27.5°
Maximum altitude 19:13:30 51° 189° (S) 4,355 13.2 -31.0°
Enters shadow 19:24:04 33° 138° (SE) 4,794 13.1 -32.7°
